Location: Unspecified
(35.7250°N, 0.0000°E)
Time: 08:47:37
(UTC+00:00)

Vanguard 1 Rocket - Pass Details

Date: 23 June 2019
Orbit: 651 x 4225 km, 34.3° (Epoch: 23 July)

Event Time Altitude Azimuth Distance (km) Brightness Sun altitude
Rises 23:46:29 0° 272° (W) 3,820 10.7 -30.7°
Enters shadow 23:48:29 - 262° (W) 3,173 10.1 -30.8°
Reaches altitude 10° 23:52:25 10° 229° (SW) 2,284 - -30.8°
Maximum altitude 23:52:55 10° 223° (SW) 2,240 - -30.8°
Drops below altitude 10° 23:53:24 10° 217° (SW) 2,216 - -30.8°
Sets 23:58:08 0° 170° (S) 2,946 - -30.8°
